• en France
  • Liste des pays
  • À 7 jours
  • Température de l'eau
  • Carte satellitaire
  • Carte météo
  • Widgets météo
  • user-avatar
    Se connecter

    Météo par heure à Debreczyn

    Ce jour, 19 Novembre, Dimanche

    Heure Température Précipitation Vent Pression Humidité
    00:00 +2°C° 0 mm 3 m/s 750 mmHg 88%
    01:00 +1°C° 0 mm 5 m/s 749 mmHg 84%
    02:00 +1°C° 0 mm 4 m/s 749 mmHg 84%
    03:00 +1°C° 0 mm 4 m/s 749 mmHg 84%
    04:00 +2°C° 0 mm 3 m/s 749 mmHg 84%
    05:00 +2°C° 0 mm 3 m/s 749 mmHg 85%
    06:00 +1°C° 0 mm 3 m/s 749 mmHg 85%
    07:00 +1°C° 0 mm 3 m/s 749 mmHg 86%
    08:00 +2°C° 0 mm 3 m/s 749 mmHg 81%
    09:00 +3°C° 0 mm 4 m/s 749 mmHg 76%
    10:00 +5°C° 0 mm 4 m/s 749 mmHg 71%
    11:00 +5°C° 0 mm 4 m/s 749 mmHg 67%
    12:00 +6°C° 0 mm 4 m/s 749 mmHg 64%
    13:00 +6°C° 0 mm 4 m/s 748 mmHg 61%
    14:00 +6°C° 0 mm 4 m/s 748 mmHg 64%
    15:00 +5°C° 0 mm 3 m/s 748 mmHg 67%
    16:00 +5°C° 0 mm 3 m/s 748 mmHg 70%
    17:00 +4°C° 0,1 mm 3 m/s 748 mmHg 72%
    18:00 +4°C° 0,1 mm 3 m/s 748 mmHg 74%
    19:00 +4°C° 0,1 mm 4 m/s 749 mmHg 76%
    20:00 +3°C° 0 mm 4 m/s 749 mmHg 78%
    21:00 +3°C° 0 mm 4 m/s 749 mmHg 80%
    22:00 +1°C° 0 mm 4 m/s 749 mmHg 83%
    23:00 +1°C° 0 mm 4 m/s 749 mmHg 84%

    Demain, 20 Novembre, Lundi

    Heure Température Précipitation Vent Pression Humidité
    00:00 +1°C° 0 mm 4 m/s 749 mmHg 85%
    01:00 0°C° 0 mm 4 m/s 749 mmHg 85%
    02:00 0°C° 0 mm 4 m/s 749 mmHg 85%
    03:00 0°C° 0 mm 4 m/s 749 mmHg 85%
    04:00 0°C° 0 mm 4 m/s 749 mmHg 85%
    05:00 0°C° 0 mm 5 m/s 749 mmHg 83%
    06:00 0°C° 0 mm 5 m/s 749 mmHg 82%
    07:00 0°C° 0 mm 5 m/s 750 mmHg 80%
    08:00 +2°C° 0 mm 5 m/s 750 mmHg 75%
    09:00 +3°C° 0 mm 6 m/s 750 mmHg 70%
    10:00 +4°C° 0 mm 6 m/s 751 mmHg 65%
    11:00 +4°C° 0 mm 6 m/s 751 mmHg 60%
    12:00 +6°C° 0 mm 5 m/s 751 mmHg 55%
    13:00 +6°C° 0 mm 5 m/s 751 mmHg 50%
    14:00 +5°C° 0 mm 4 m/s 751 mmHg 54%
    15:00 +5°C° 0 mm 3 m/s 751 mmHg 57%
    16:00 +4°C° 0 mm 3 m/s 751 mmHg 60%
    17:00 +3°C° 0 mm 3 m/s 751 mmHg 65%
    18:00 +3°C° 0 mm 3 m/s 751 mmHg 69%
    19:00 +2°C° 0 mm 3 m/s 751 mmHg 73%
    20:00 +2°C° 0 mm 3 m/s 751 mmHg 75%
    21:00 +2°C° 0 mm 3 m/s 752 mmHg 77%
    22:00 +1°C° 0 mm 4 m/s 752 mmHg 79%
    23:00 0°C° 0 mm 4 m/s 752 mmHg 80%

    Après-demain, 21 Novembre, Mardi

    Heure Température Précipitation Vent Pression Humidité
    00:00 0°C° 0 mm 4 m/s 752 mmHg 81%
    01:00 0°C° 0 mm 4 m/s 752 mmHg 82%
    02:00 +1°C° 0,1 mm 3 m/s 751 mmHg 82%
    03:00 +1°C° 0,1 mm 3 m/s 751 mmHg 82%
    04:00 +2°C° 0,1 mm 3 m/s 751 mmHg 82%
    05:00 +2°C° 0,5 mm 3 m/s 750 mmHg 82%
    06:00 +1°C° 0,5 mm 4 m/s 750 mmHg 83%
    07:00 +1°C° 0,5 mm 5 m/s 750 mmHg 83%
    08:00 +1°C° 0,4 mm 5 m/s 750 mmHg 81%
    09:00 +2°C° 0,4 mm 6 m/s 749 mmHg 80%
    10:00 +2°C° 0,4 mm 6 m/s 749 mmHg 78%
    11:00 +2°C° 0,4 mm 6 m/s 749 mmHg 79%
    12:00 +3°C° 0,4 mm 6 m/s 749 mmHg 81%
    13:00 +3°C° 0,4 mm 5 m/s 748 mmHg 82%
    14:00 +5°C° 0,4 mm 5 m/s 748 mmHg 84%
    15:00 +5°C° 0,4 mm 4 m/s 748 mmHg 86%
    16:00 +5°C° 0,4 mm 4 m/s 748 mmHg 87%
    17:00 +5°C° 0,4 mm 4 m/s 748 mmHg 88%
    18:00 +5°C° 0,4 mm 4 m/s 748 mmHg 89%
    19:00 +5°C° 0,4 mm 4 m/s 748 mmHg 90%
    20:00 +5°C° 0,2 mm 4 m/s 749 mmHg 90%
    21:00 +5°C° 0,2 mm 3 m/s 749 mmHg 91%
    22:00 +5°C° 0,2 mm 3 m/s 749 mmHg 91%
    23:00 +5°C° 0,1 mm 3 m/s 749 mmHg 91%

    22 Novembre, Mercredi

    Heure Température Précipitation Vent Pression Humidité
    00:00 +5°C° 0,1 mm 3 m/s 750 mmHg 92%
    01:00 +5°C° 0,1 mm 3 m/s 750 mmHg 92%
    02:00 +5°C° 0 mm 2 m/s 750 mmHg 92%
    03:00 +5°C° 0 mm 2 m/s 750 mmHg 92%
    04:00 +5°C° 0 mm 2 m/s 751 mmHg 92%
    05:00 +5°C° 0 mm 2 m/s 751 mmHg 91%
    06:00 +5°C° 0 mm 2 m/s 752 mmHg 90%
    07:00 +4°C° 0 mm 2 m/s 752 mmHg 88%
    08:00 +6°C° 0 mm 1 m/s 753 mmHg 84%
    09:00 +6°C° 0 mm 1 m/s 753 mmHg 80%
    10:00 +7°C° 0 mm 1 m/s 753 mmHg 76%
    11:00 +7°C° 0 mm 1 m/s 754 mmHg 74%
    12:00 +8°C° 0 mm 1 m/s 754 mmHg 72%
    13:00 +8°C° 0 mm 1 m/s 754 mmHg 70%
    14:00 +8°C° 0 mm 1 m/s 754 mmHg 74%
    15:00 +8°C° 0 mm 1 m/s 754 mmHg 78%
    16:00 +7°C° 0 mm 1 m/s 754 mmHg 82%
    17:00 +7°C° 0 mm 1 m/s 754 mmHg 85%
    18:00 +6°C° 0 mm 2 m/s 754 mmHg 87%
    19:00 +5°C° 0 mm 2 m/s 755 mmHg 90%
    20:00 +5°C° 0 mm 2 m/s 755 mmHg 91%
    21:00 +5°C° 0 mm 2 m/s 755 mmHg 92%
    22:00 +5°C° 0 mm 2 m/s 755 mmHg 93%
    23:00 +5°C° 0 mm 2 m/s 755 mmHg 93%

    23 Novembre, Jeudi

    Heure Température Précipitation Vent Pression Humidité
    00:00 +5°C° 0 mm 2 m/s 755 mmHg 94%
    01:00 +5°C° 0 mm 2 m/s 756 mmHg 94%
    02:00 +5°C° 0 mm 2 m/s 756 mmHg 94%
    03:00 +5°C° 0 mm 2 m/s 756 mmHg 94%
    04:00 +4°C° 0 mm 2 m/s 756 mmHg 94%
    05:00 +4°C° 0 mm 2 m/s 756 mmHg 93%
    06:00 +4°C° 0 mm 2 m/s 756 mmHg 93%
    07:00 +4°C° 0 mm 2 m/s 757 mmHg 93%
    08:00 +5°C° 0 mm 2 m/s 757 mmHg 89%
    09:00 +6°C° 0 mm 2 m/s 757 mmHg 85%
    10:00 +8°C° 0 mm 2 m/s 758 mmHg 81%
    11:00 +8°C° 0 mm 2 m/s 757 mmHg 79%
    12:00 +9°C° 0 mm 2 m/s 757 mmHg 76%
    13:00 +10°C° 0 mm 2 m/s 757 mmHg 74%
    14:00 +10°C° 0 mm 1 m/s 757 mmHg 78%
    15:00 +9°C° 0 mm 1 m/s 757 mmHg 81%
    16:00 +9°C° 0 mm 1 m/s 758 mmHg 85%
    17:00 +8°C° 0 mm 1 m/s 758 mmHg 86%
    18:00 +8°C° 0 mm 1 m/s 758 mmHg 87%
    19:00 +8°C° 0 mm 1 m/s 758 mmHg 88%
    20:00 +7°C° 0 mm 1 m/s 758 mmHg 88%
    21:00 +7°C° 0 mm 1 m/s 758 mmHg 89%
    22:00 +7°C° 0 mm 1 m/s 758 mmHg 89%
    23:00 +7°C° 0 mm 1 m/s 758 mmHg 89%

    24 Novembre, Vendredi

    Heure Température Précipitation Vent Pression Humidité
    00:00 +7°C° 0 mm 1 m/s 758 mmHg 90%
    01:00 +6°C° 0 mm 1 m/s 758 mmHg 90%
    02:00 +6°C° 0 mm 1 m/s 758 mmHg 90%
    03:00 +6°C° 0 mm 1 m/s 758 mmHg 90%
    04:00 +6°C° 0 mm 1 m/s 758 mmHg 90%
    05:00 +6°C° 0 mm 1 m/s 758 mmHg 90%
    06:00 +6°C° 0 mm 1 m/s 758 mmHg 91%
    07:00 +6°C° 0 mm 1 m/s 758 mmHg 91%
    08:00 +7°C° 0 mm 1 m/s 758 mmHg 87%
    09:00 +8°C° 0 mm 1 m/s 759 mmHg 83%
    10:00 +9°C° 0 mm 1 m/s 759 mmHg 79%
    11:00 +10°C° 0 mm 1 m/s 758 mmHg 76%
    12:00 +10°C° 0 mm 1 m/s 758 mmHg 74%
    13:00 +10°C° 0 mm 0 m/s 758 mmHg 72%
    14:00 +10°C° 0 mm 1 m/s 758 mmHg 76%
    15:00 +9°C° 0 mm 1 m/s 758 mmHg 80%
    16:00 +8°C° 0 mm 1 m/s 758 mmHg 84%
    17:00 +8°C° 0 mm 1 m/s 758 mmHg 86%
    18:00 +8°C° 0 mm 1 m/s 758 mmHg 87%
    19:00 +7°C° 0 mm 1 m/s 758 mmHg 88%
    20:00 +7°C° 0 mm 1 m/s 759 mmHg 89%
    21:00 +7°C° 0 mm 1 m/s 759 mmHg 89%
    22:00 +7°C° 0 mm 1 m/s 759 mmHg 90%
    23:00 +6°C° 0 mm 1 m/s 759 mmHg 90%
    Voir plus